Weather History for Laramie, WY

Change the Weather History Date:

Thursday, October 9, 2014

  Actual Average Record
Temperature  
Mean Temperature 45 °F 44 °F  
Max Temperature 57 °F 59 °F 76 °F (1952)
Min Temperature 33 °F 30 °F 2 °F (1990)
Degree Days  
Heating Degree Days 20 21  
Month to date heating degree days 165 174  
Since 1 July heating degree days 616 699  
Cooling Degree Days 0 0  
Month to date cooling degree days 0 0  
Year to date cooling degree days 67 67  
Moisture  
Dew Point 38 °F    
Average Humidity 81    
Maximum Humidity 89    
Minimum Humidity 73    
Precipitation  
Precipitation 0.03 in 0.03 in 0.49 in (1949)
Month to date precipitation 0.09 0.26  
Year to date precipitation 12.95 9.52  
Sea Level Pressure  
Sea Level Pressure 30.05 in    
Wind  
Wind Speed 7 mph (SSE)    
Max Wind Speed 22 mph    
Max Gust Speed 26 mph    
Visibility 10 miles    
Events Rain    
T = Trace of Precipitation, MM = Missing Value Source: NWS Daily Summary

Daily Weather History Graph

Daily Weather History Graph

Search for Another Location

Airport:

Trip Planner

Search our weather history database for the weather conditions in past years. The results will help you decide how hot, cold, wet, or windy it might be!

Date:

Astronomy

Oct. 09, 2014 Rise Set
Actual Time 7:07 AM MDT 6:31 PM MDT
Civil Twilight 6:40 AM MDT 6:58 PM MDT
Nautical Twilight 6:08 AM MDT 7:30 PM MDT
Astronomical Twilight 5:36 AM MDT 8:02 PM MDT
Moon 7:28 PM MDT (10/9) 8:26 AM MDT (10/9)
Length of Visible Light 12h 18m
Length of Day
11h 23m
Full, 98% of the Moon is Illuminated
Oct 9
Full
Oct 15
Last Quarter
Oct 23
New
Oct 30
First Quarter
Nov 6
Full

Hourly Weather History & Observations

Time (MDT) Temp. Windchill Dew Point Humidity Pressure Visibility Wind Dir Wind Speed Gust Speed Precip Events Conditions
12:53 AM 41.0 °F 39.0 °F 33.1 °F 73% 29.91 in 10.0 mi SE 3.5 mph - N/A   Clear
1:53 AM 39.0 °F 34.8 °F 33.1 °F 79% 29.93 in 10.0 mi ESE 5.8 mph - N/A   Clear
2:53 AM 37.0 °F 32.4 °F 33.1 °F 86% 29.94 in 10.0 mi West 5.8 mph - N/A   Clear
3:53 AM 36.0 °F 31.1 °F 32.0 °F 86% 29.94 in 10.0 mi West 5.8 mph - N/A   Clear
4:53 AM 34.0 °F 28.8 °F 30.9 °F 89% 29.95 in 10.0 mi SSW 5.8 mph - N/A   Clear
5:53 AM 34.0 °F 31.0 °F 30.9 °F 89% 29.96 in 10.0 mi SW 3.5 mph - N/A   Clear
6:53 AM 34.0 °F - 30.0 °F 85% 30.01 in 10.0 mi Calm Calm - N/A   Clear
7:53 AM 36.0 °F - 33.1 °F 89% 30.03 in 10.0 mi Calm Calm - N/A   Clear
8:53 AM 42.1 °F - 36.0 °F 79% 30.02 in 10.0 mi Calm Calm - N/A   Mostly Cloudy
9:53 AM 48.0 °F - 36.0 °F 63% 30.02 in 10.0 mi Calm Calm - N/A   Clear
10:53 AM 54.0 °F - 36.0 °F 51% 30.01 in 10.0 mi Calm Calm - N/A   Mostly Cloudy
11:53 AM 55.9 °F - 37.9 °F 51% 29.99 in 10.0 mi ESE 11.5 mph - N/A   Overcast
12:53 PM 55.0 °F - 39.9 °F 57% 30.01 in 10.0 mi SSE 21.9 mph 25.3 mph N/A   Mostly Cloudy
1:53 PM 50.0 °F - 44.1 °F 80% 30.02 in 10.0 mi SE 13.8 mph - 0.00 in Rain Light Rain
2:53 PM 53.1 °F - 42.1 °F 66% 30.01 in 10.0 mi SE 8.1 mph - 0.00 in   Overcast
3:53 PM 48.9 °F - 46.0 °F 90% 30.05 in 8.0 mi SSE 9.2 mph - 0.02 in Rain Light Rain
4:53 PM 46.9 °F - 44.1 °F 90% 30.07 in 10.0 mi South 11.5 mph - 0.01 in Rain Light Rain
5:53 PM 46.0 °F 41.4 °F 44.1 °F 93% 30.10 in 10.0 mi South 9.2 mph - 0.00 in   Overcast
6:53 PM 45.0 °F 41.2 °F 42.1 °F 90% 30.12 in 10.0 mi South 6.9 mph - N/A   Overcast
7:25 PM 45.0 °F 40.6 °F 41.0 °F 86% 30.22 in 10.0 mi South 8.1 mph - N/A   Overcast
7:53 PM 45.0 °F 40.1 °F 41.0 °F 86% 30.12 in 10.0 mi South 9.2 mph - N/A   Mostly Cloudy
8:37 PM 45.0 °F 40.1 °F 41.0 °F 86% 30.23 in 10.0 mi SSE 9.2 mph - N/A   Overcast
8:53 PM 45.0 °F 40.1 °F 41.0 °F 86% 30.09 in 10.0 mi SSE 9.2 mph - N/A   Overcast
9:53 PM 45.0 °F 41.8 °F 41.0 °F 86% 30.06 in 10.0 mi SSE 5.8 mph - N/A   Overcast
10:09 PM 44.1 °F 40.8 °F 39.9 °F 85% 30.23 in 10.0 mi SSE 5.8 mph - N/A   Overcast
10:32 PM 43.0 °F 40.3 °F 39.9 °F 89% 30.23 in 10.0 mi South 4.6 mph - N/A   Overcast
10:53 PM 44.1 °F 40.8 °F 41.0 °F 89% 30.04 in 10.0 mi South 5.8 mph - N/A   Overcast
11:53 PM 44.1 °F 40.8 °F 39.9 °F 85% 30.03 in 10.0 mi SSE 5.8 mph - N/A   Mostly Cloudy